Bookmark and Share
Track history (hours):
 

Mariner Of The Seas

Operator: Royal Caribbean Cruises Ltd

Last reported at 2014-Apr-23 10:28 UTC. Time now 2014-Apr-24 11:22 UTC.
Position N 33°40' E 129°43'.

Type: Passenger vessel. MMSI: 311493000.

NotesDate/timePositionNaut miles runAvg speedWind from/ knotsBaromVisibWave heightAir tempDewpointWater temp
2014-Apr-23 10:28N 33°40' E 129°43'1516.5
2014-Apr-23 09:33N 33°43' E 130°00'1414.3
2014-Apr-23 08:33N 33°40' E 130°17'6 6.2
2014-Apr-23 07:32N 33°37' E 130°24'0 0.0
2014-Apr-23 06:26N 33°37' E 130°24'0 0.0
2014-Apr-23 05:26N 33°37' E 130°24'0 0.0
2014-Apr-23 04:32N 33°37' E 130°24'0 0.0
2014-Apr-23 03:32N 33°37' E 130°24'0 0.0
2014-Apr-23 02:29N 33°37' E 130°24'0 0.0
2014-Apr-23 01:29N 33°37' E 130°24'0 0.0
2014-Apr-23 00:29N 33°37' E 130°24'0 0.0
2014-Apr-22 23:29N 33°37' E 130°24'0 0.0
2014-Apr-22 22:29N 33°37' E 130°24'1 0.6
2014-Apr-22 21:32N 33°37' E 130°23'9 9.2
2014-Apr-22 20:33N 33°43' E 130°15'  
2014-Apr-19 10:06N 35°03' E 129°08'3 4.4
2014-Apr-19 09:30N 35°05' E 129°05'0 0.0
2014-Apr-19 08:27N 35°05' E 129°05'0 0.0
2014-Apr-19 07:33N 35°05' E 129°05'0 0.0
2014-Apr-19 06:33N 35°05' E 129°05'0 0.0
2014-Apr-19 05:33N 35°05' E 129°05'0 0.0
2014-Apr-19 03:33N 35°05' E 129°05'0 0.0
2014-Apr-19 02:33N 35°05' E 129°05'0 0.0
2014-Apr-19 01:33N 35°05' E 129°05'0 0.0
2014-Apr-19 00:15N 35°05' E 129°05'1 1.0
2014-Apr-18 23:32N 35°05' E 129°06'  
2014-Apr-16 19:13N 31°06' E 122°23'54 1.1
2014-Apr-14 17:29N 31°30' E 123°20'17 8.6
2014-Apr-14 15:34N 31°20' E 123°04'7210.3
2014-Apr-14 08:33N 31°21' E 121°40'9 9.2
2014-Apr-14 07:34N 31°25' E 121°30'0 0.1
2014-Apr-14 06:31N 31°25' E 121°30'3 0.4
2014-Apr-13 22:32N 31°24' E 121°34'  

Dump ship's entire track history

sailing weather and tide predictions

Mariner Of The Seas — C6FV9 — position and weather